Voltar ao catálogo

GB 3

AtivoCiênciaLEO
NORAD 14180·PAYLOAD·🇺🇸 United States

Lançado Jun 9, 1983 de Vandenberg Space Force Base

Loading…

Próximas Passagens (próximas 24 horas)

TLE

AtualizadoSource: Space-Track

Época: Sep 14, 2026, 05:31 UTC

1 14180U 83056G   26257.23000104  .00002741  00000-0  33372-3 0  9993
2 14180  63.3132 355.1729 0715129 133.4022 232.8893 13.82474152371302

Acompanhe GB 3 em tempo real com AllMySat

Download on the App Store